Tracking 19576 objects as of 17-Feb-2019
HD Live streaming from Space Station
objects crossing your sky now

COSMOS 516

Track COSMOS 516 now!
10-day predictions
COSMOS 516 is classified as:


NORAD ID: 6154
Int'l Code: 1972-066A
Perigee: 932.4 km
Apogee: 1,026.1 km
Inclination: 64.8 °
Period: 104.5 minutes
Semi major axis: 7350 km
RCS: 3.1093 m2 (large)
Launch date: August 21, 1972
Source: Commonwealth of Independent States (former USSR) (CIS)
Launch site: TYURATAM MISSILE AND SPACE COMPLEX (TTMTR)
aabbcc
Your satellite tracking list
Your tracking list is empty




NASA's NSSDC Master Catalog

Two Line Element Set (TLE):
1  6154U 72066A   19047.94187762 -.00000058 +00000-0 +29707-4 0  9995
2  6154 064.8087 259.1548 0063743 162.1847 198.1464 13.77673386339095
Source of the keplerian elements: AFSPC